This is the latest recevied weather packets stored in our database for station/object VE3CGR-6. If no packets are shown the sender has not sent any weather packets the latest 1 day(s).
| Time | Temp. | Humidity | Pressure | Rain* | Wind** | Luminosity | Snow |
|---|---|---|---|---|---|---|---|
| 1777972217 | 16.11° C | 74% | 998.7 hPa | 0 mm | 0.89 m/s, 203° | - | - |
| 1777971617 | 16.11° C | 73% | 998.6 hPa | 0 mm | 0.45 m/s, 203° | - | - |
| 1777971017 | 16.11° C | 73% | 998.5 hPa | 0 mm | 0.45 m/s, 225° | - | - |
| 1777970417 | 16.67° C | 73% | 998.9 hPa | 0 mm | 0.45 m/s, 225° | - | - |
| 1777969817 | 16.67° C | 72% | 998.8 hPa | 0 mm | 0.45 m/s, 203° | - | - |
| 1777969217 | 16.67° C | 72% | 999 hPa | 0 mm | 0.45 m/s, 203° | - | - |
| 1777968617 | 16.67° C | 72% | 999.1 hPa | 0 mm | 0.89 m/s, 225° | - | - |
| 1777968017 | 16.67° C | 71% | 999.2 hPa | 0 mm | 0.45 m/s, 180° | - | - |
| 1777967417 | 16.67° C | 71% | 999.2 hPa | 0 mm | 0.89 m/s, 225° | - | - |
| 1777966817 | 16.67° C | 70% | 999.3 hPa | 0 mm | 0.45 m/s, 225° | - | - |
| 1777966217 | 16.67° C | 70% | 999.3 hPa | 0 mm | 1.34 m/s, 225° | - | - |
| 1777965617 | 16.67° C | 69% | 999.2 hPa | 0 mm | 0.89 m/s, 248° | - | - |
| 1777965017 | 16.67° C | 69% | 999.1 hPa | 0 mm | 0.89 m/s, 225° | - | - |
| 1777964417 | 16.67° C | 68% | 999.2 hPa | 0 mm | 1.34 m/s, 225° | - | - |
| 1777963817 | 16.67° C | 68% | 999.3 hPa | 0 mm | 0.45 m/s, 225° | - | - |
| 1777963217 | 16.67° C | 68% | 999.3 hPa | 0 mm | 1.34 m/s, 225° | - | - |
| 1777962617 | 16.67° C | 68% | 999.4 hPa | 0 mm | 1.34 m/s, 225° | - | - |
| 1777962017 | 16.67° C | 68% | 999.4 hPa | 0 mm | 0.89 m/s, 225° | - | - |
| 1777961417 | 16.67° C | 67% | 999.5 hPa | 0 mm | 1.34 m/s, 203° | - | - |
| 1777960817 | 16.67° C | 68% | 999.5 hPa | 0 mm | 0.89 m/s, 203° | - | - |
| 1777960217 | 16.67° C | 68% | 999.7 hPa | 0 mm | 1.34 m/s, 225° | - | - |
* Rain latest hour (hover to see other rain measurements)
** Current wind speed in m/s (hover to see current wind gust speed)